Flag for Turkey Weather past 2 weeks in Gaziantep, Turkey

61 °F


Feels Like: 61 °F
Forecast: 51 / 74 °F
Wind: No wind

Location: Gaziantep Airport

Current Time: Oct 7, 2015 at 11:19:13 PM

Latest Report: Oct 7, 2015 at 10:50 PM

Visibility: 10 mi

Pressure: 29.83 "Hg (26.96 "Hg at 856m altitude)

Humidity: 72%

Dew point: 52 °F

Location of GaziantepLocation

Historic Weather in Gaziantep — Graph


Gaziantep temperature yesterday

Maximum temperature yesterday: 81 °F (at 10:20 AM)
Minimum temperature yesterday: 59 °F (at 3:50 AM)
Average temperature yesterday: 70 °F

Past Weeks' High & Low Weather Summary

High90 °F (Sep 23, 1:50 PM)94% (Oct 7, 7:50 AM)30.21 "Hg (Oct 7, 7:50 AM)
Low55 °F (Sep 24, 6:20 AM)13% (Sep 23, 4:50 PM)29.68 "Hg (Oct 7, 6:50 AM)
Average72 °F54%29.97 "Hg
* Reported Sep 22 9:20 PM — Oct 7 9:50 PM, Gaziantep, Weather by CustomWeather, © 2015

Note: Actual official high and low records may vary slightly from our data, if they occured in-between our weather recording intervals... More about our weather records


Gaziantep weather history for previous 24 hours

Time TempWeatherWind HumidityBarometerVisibility
9:50 PM
Wed, Oct 7
61 °FClear.No wind72%29.83 "Hg10 mi
9:20 PM61 °FPassing clouds.7 mph77%29.80 "HgN/A
8:50 PM61 °FPassing clouds.No wind77%29.80 "HgN/A
8:20 PM63 °FPassing clouds.No wind73%29.80 "HgN/A
7:50 PM64 °FPassing clouds.1 mph73%29.80 "HgN/A
7:20 PM64 °FPassing clouds.No wind73%29.77 "HgN/A
6:50 PM64 °FScattered clouds.5 mph73%29.77 "HgN/A
6:20 PM64 °FScattered clouds.No wind68%29.77 "HgN/A
5:50 PM68 °FScattered clouds.7 mph60%29.74 "HgN/A
5:20 PM68 °FScattered clouds.8 mph60%29.74 "HgN/A
4:50 PM70 °FScattered clouds.10 mph53%29.74 "HgN/A
4:20 PM70 °FScattered clouds.9 mph57%29.71 "HgN/A
3:50 PM70 °FScattered clouds.10 mph57%29.71 "HgN/A
3:20 PM72 °FScattered clouds.13 mph53%29.71 "HgN/A
2:50 PM70 °FBroken clouds.10 mph57%29.71 "HgN/A
2:20 PM70 °FBroken clouds.12 mph57%29.71 "HgN/A
1:50 PM70 °FBroken clouds.12 mph60%29.71 "HgN/A
1:20 PM68 °FBroken clouds.8 mph64%29.71 "HgN/A
12:50 PM68 °FBroken clouds.10 mph69%29.74 "HgN/A
12:20 PM68 °FBroken clouds.13 mph64%29.74 "HgN/A
11:50 AM66 °FBroken clouds.8 mph68%29.74 "HgN/A
11:20 AM64 °FBroken clouds.7 mph68%29.74 "HgN/A
10:50 AM63 °FBroken clouds.No wind83%29.74 "HgN/A
10:20 AM61 °FBroken clouds.7 mph77%29.74 "HgN/A
9:50 AM59 °FPartly sunny.2 mph88%29.71 "HgN/A
9:20 AM61 °FThunderstorms. Partly sunny.10 mph83%29.74 "Hg4 mi
8:50 AM61 °FBroken clouds.9 mph88%29.71 "HgN/A
8:20 AM61 °FSprinkles. Partly sunny.7 mph88%29.71 "HgN/A
7:50 AM59 °FSprinkles. Partly sunny.No wind94%29.71 "HgN/A
7:20 AM59 °FSprinkles. Passing clouds.No wind88%29.71 "HgN/A
6:50 AM59 °FSprinkles. Passing clouds.No wind88%29.68 "HgN/A
6:20 AM59 °FSprinkles. Passing clouds.No wind88%29.71 "HgN/A
5:50 AM59 °FSprinkles. Passing clouds.No wind88%29.71 "HgN/A
5:20 AM59 °FSprinkles. Passing clouds.No wind88%29.71 "HgN/A
4:50 AM59 °FSprinkles. Passing clouds.3 mph88%29.71 "HgN/A
4:20 AM59 °FPassing clouds.7 mph88%29.71 "HgN/A
3:50 AM61 °FSprinkles. Passing clouds.15 mph77%29.71 "HgN/A
3:20 AM63 °FSprinkles. Passing clouds.5 mph83%29.71 "HgN/A
2:50 AM63 °FSprinkles. Passing clouds.1 mph77%29.71 "HgN/A
2:20 AM63 °FPartly cloudy.No wind77%29.71 "HgN/A
1:50 AM64 °FPartly cloudy.No wind73%29.74 "HgN/A
1:20 AM64 °FPartly cloudy.No wind73%29.74 "HgN/A
12:50 AM64 °FPartly cloudy.6 mph73%29.74 "HgN/A
12:20 AM64 °FPartly cloudy.2 mph73%29.74 "HgN/A
11:50 PM
Tue, Oct 6
64 °FPartly cloudy.No wind68%29.74 "HgN/A
11:20 PM64 °FPartly cloudy.No wind68%29.77 "HgN/A
Weather by CustomWeather, © 2015

See weather overviewHow to use our weather pages